Change the Weather History Date:

Sunday, March 17, 2013

  Actual Average Record
Temperature  
Mean Temperature 37 °F -  
Max Temperature 41 °F 49 °F 86 °F (2002)
Min Temperature 33 °F 33 °F 24 °F (1997)
Degree Days  
Heating Degree Days 28    
Moisture  
Dew Point 29 °F    
Average Humidity 76    
Maximum Humidity 93    
Minimum Humidity 49    
Precipitation  
Precipitation 0.00 in - - ()
Sea Level Pressure  
Sea Level Pressure 30.10 in    
Wind  
Wind Speed 3 mph (NNW)    
Max Wind Speed 9 mph    
Max Gust Speed -    
Visibility 8 miles    
Events      
Averages and records for this station are not official NWS values.
T = Trace of Precipitation, MM = Missing Value Source: NWS Daily Summary

Daily Weather History Graph

Daily Weather History Graph

Search for Another Location

Airport or City:

Trip Planner

Search our weather history database for the weather conditions in past years. The results will help you decide how hot, cold, wet, or windy it might be!

Date:

Astronomy

Mar. 17, 2013 Rise Set
Actual Time 7:13 AM EDT 7:14 PM EDT
Civil Twilight 6:46 AM EDT 7:41 PM EDT
Nautical Twilight 6:15 AM EDT 8:12 PM EDT
Astronomical Twilight 5:44 AM EDT 8:44 PM EDT
Moon 10:26 AM EDT (3/17) 12:18 AM EDT (3/17)
Length of Visible Light 12h 54m
Length of Day
12h 01m
Waxing Crescent, 31% of the Moon is Illuminated
Mar 17
Waxing Crescent
Mar 19
First Quarter
Mar 27
Full
Apr 3
Last Quarter
Apr 10
New

Hourly Weather History & Observations

Time (EDT) Temp. Windchill Dew Point Humidity Pressure Visibility Wind Dir Wind Speed Gust Speed Precip Events Conditions
12:18 AM 37.4 °F - 32.0 °F 81% 29.96 in 10.0 mi Calm Calm - N/A   Mostly Cloudy
12:39 AM 35.6 °F 32.8 °F 32.0 °F 87% 29.95 in 10.0 mi NW 3.5 mph - N/A   Scattered Clouds
1:00 AM 35.6 °F - 32.0 °F 87% 29.95 in 10.0 mi Calm Calm - N/A   Mostly Cloudy
1:18 AM 35.6 °F 32.8 °F 32.0 °F 87% 29.96 in 10.0 mi NW 3.5 mph - N/A   Scattered Clouds
1:39 AM 33.8 °F 29.6 °F 32.0 °F 93% 29.96 in 10.0 mi NW 4.6 mph - N/A   Scattered Clouds
2:00 AM 35.6 °F 31.7 °F 32.0 °F 87% 29.97 in 7.0 mi NW 4.6 mph - N/A   Mostly Cloudy
2:18 AM 35.6 °F 31.7 °F 32.0 °F 87% 29.97 in 7.0 mi NW 4.6 mph - N/A   Overcast
2:39 AM 35.6 °F 30.7 °F 32.0 °F 87% 29.99 in 7.0 mi WNW 5.8 mph - N/A   Overcast
3:00 AM 35.6 °F 31.7 °F 32.0 °F 87% 29.98 in 7.0 mi NNW 4.6 mph - N/A   Overcast
3:18 AM 33.8 °F 30.8 °F 32.0 °F 93% 29.99 in 7.0 mi NW 3.5 mph - N/A   Scattered Clouds
3:39 AM 33.8 °F 29.6 °F 32.0 °F 93% 30.00 in 7.0 mi NW 4.6 mph - N/A   Scattered Clouds
4:00 AM 33.8 °F 29.6 °F 32.0 °F 93% 30.01 in 7.0 mi WNW 4.6 mph - N/A   Scattered Clouds
4:18 AM 33.8 °F - 32.0 °F 93% 30.01 in 7.0 mi Calm Calm - N/A   Scattered Clouds
4:39 AM 33.8 °F - 32.0 °F 93% 30.02 in 7.0 mi Calm Calm - N/A   Mostly Cloudy
5:00 AM 33.8 °F 30.8 °F 32.0 °F 93% 30.02 in 7.0 mi NW 3.5 mph - N/A   Overcast
5:18 AM 35.6 °F - 32.0 °F 87% 30.03 in 7.0 mi Calm Calm - N/A   Overcast
5:33 AM 35.6 °F 32.8 °F 32.0 °F 87% 30.04 in 7.0 mi NW 3.5 mph - N/A   Mostly Cloudy
6:45 AM 35.6 °F - 32.0 °F 87% 30.06 in 10.0 mi Calm Calm - N/A   Overcast
8:45 AM 39.2 °F 35.9 °F 30.2 °F 70% 30.13 in 10.0 mi North 4.6 mph - N/A   Mostly Cloudy
10:55 AM 41.0 °F 39.0 °F 28.4 °F 61% 30.18 in 10.0 mi NNW 3.5 mph - N/A   Mostly Cloudy
11:50 AM 39.2 °F 33.0 °F 28.4 °F 65% 30.18 in 7.0 mi NW 9.2 mph - N/A   Overcast
12:55 PM 39.2 °F 34.2 °F 30.2 °F 70% 30.21 in 7.0 mi NNE 6.9 mph - N/A   Overcast
1:45 PM 39.2 °F 33.6 °F 28.4 °F 65% 30.19 in 5.0 mi NNW 8.1 mph - N/A   Overcast
2:55 PM 39.2 °F 33.6 °F 28.4 °F 65% 30.18 in 6.0 mi NW 8.1 mph - N/A   Overcast
3:45 PM 39.2 °F 34.2 °F 28.4 °F 65% 30.19 in 6.0 mi North 6.9 mph - N/A   Overcast
4:45 PM 39.2 °F 35.0 °F 26.6 °F 61% 30.20 in 7.0 mi WNW 5.8 mph - N/A   Overcast
5:50 PM 41.0 °F - 26.6 °F 57% 30.21 in 7.0 mi Calm Calm - N/A   Mostly Cloudy
6:45 PM 39.2 °F 37.0 °F 28.4 °F 65% 30.22 in 7.0 mi SE 3.5 mph - N/A   Overcast
7:50 PM 41.0 °F - 24.8 °F 53% 30.25 in 10.0 mi Calm Calm - N/A   Overcast
8:50 PM 39.2 °F 37.0 °F 23.0 °F 52% 30.27 in 10.0 mi North 3.5 mph - N/A   Overcast
9:45 PM 39.2 °F 37.0 °F 21.2 °F 49% 30.29 in 10.0 mi NNE 3.5 mph - N/A   Mostly Cloudy
10:21 PM 37.4 °F 34.9 °F 23.0 °F 56% 30.29 in 10.0 mi NNE 3.5 mph - N/A   Clear
10:42 PM 37.4 °F 33.8 °F 21.2 °F 52% 30.29 in 10.0 mi North 4.6 mph - N/A   Clear